Regional Weather Roundup
Issued by NWS Goodland, KS

Home | Current Version | Previous Version | Text Only | Print | Product List | Glossary Off
Versions: 1 2 3 4 5 6 7 8 9 10 11 12 13 14 15 16 17 18 19 20 21 22 23 24 25 26 27 28 29 30 31 32 33 34 35 36 37 38 39 40 41 42 43 44 45 46 47 48 49 50

000
ASUS43 KGLD 201508
RWRGLD

GOODLAND FORECAST AREA HOURLY WEATHER ROUNDUP
NATIONAL WEATHER SERVICE GOODLAND KS
800 AM MST SAT JAN 20 2018

...OFFICIAL OBSERVATIONS...

CITY           SKY/WX    TMP DP  RH WIND       PRES   REMARKS
GOODLAND KS    CLEAR     27  24  89 NW6       29.76R
HILL CITY KS   CLOUDY    28  25  88 N8        29.76R
IMPERIAL NEB   MOCLDY    30  28  92 N8        29.81R
MCCOOK NEB     PTCLDY    31  28  89 N10       29.78S
AKRON CO       MOCLDY    29  21  72 NE6       29.75R
BURLINGTON CO  CLEAR     28  20  71 NW6       29.75R
LIMON CO       PTCLDY    30  19  63 NW5       29.77R
$$

...UNOFFICIAL OBSERVATIONS...

CITY           SKY/WX    TMP DP  RH WIND       PRES   REMARKS
COLBY KS       CLEAR     30  30 100 N9        29.77R
NORTON KS      CLEAR     30  25  80 N10       29.75
SHARON SPRINGS   N/A     28  22  76 CALM        N/A
KIT CARSON CO    N/A     30  16  56 CALM        N/A
YUMA CO        FAIR      25  19  80 N5        29.77R
$$




USA.gov is the U.S. government's official web portal to all federal, state and local government web resources and services.